TimeCST,TemperatureF,Dew PointF,Humidity,Sea Level PressureIn,VisibilityMPH,Wind Direction,Wind SpeedMPH,Gust SpeedMPH,PrecipitationIn,Events,Conditions,WindDirDegrees,DateUTC
12:15 AM,45.0,32.0,60,29.96,10.0,SSE,4.6,-,N/A,,Overcast,160,2013-11-04 06:15:00
12:35 AM,45.0,32.0,60,29.96,10.0,SSE,5.8,-,N/A,,Overcast,160,2013-11-04 06:35:00
12:55 AM,45.3,32.0,60,29.95,10.0,SSE,9.2,-,N/A,,Overcast,160,2013-11-04 06:55:00
1:15 AM,45.3,32.2,60,29.95,10.0,South,6.9,-,N/A,,Overcast,180,2013-11-04 07:15:00
1:35 AM,45.5,32.4,60,29.94,10.0,SSE,6.9,-,N/A,,Overcast,160,2013-11-04 07:35:00
1:55 AM,45.5,32.4,60,29.94,10.0,SSE,8.1,-,N/A,,Overcast,160,2013-11-04 07:55:00
2:15 AM,45.7,32.5,60,29.93,10.0,South,8.1,-,N/A,,Overcast,170,2013-11-04 08:15:00
2:35 AM,45.7,32.9,61,29.92,10.0,South,6.9,-,N/A,,Overcast,170,2013-11-04 08:35:00
2:55 AM,46.0,32.9,60,29.91,10.0,SSE,4.6,16.1,N/A,,Overcast,160,2013-11-04 08:55:00
3:15 AM,45.9,32.9,61,29.91,10.0,South,8.1,-,N/A,,Overcast,170,2013-11-04 09:15:00
3:35 AM,45.9,32.9,61,29.90,10.0,South,10.4,17.3,N/A,,Overcast,170,2013-11-04 09:35:00
3:55 AM,46.4,32.9,59,29.90,10.0,South,6.9,-,N/A,,Overcast,180,2013-11-04 09:55:00
4:15 AM,45.9,33.1,61,29.89,10.0,South,6.9,-,N/A,,Overcast,180,2013-11-04 10:15:00
4:35 AM,46.0,33.1,61,29.89,10.0,South,5.8,-,N/A,,Overcast,190,2013-11-04 10:35:00
4:55 AM,46.0,33.1,61,29.89,10.0,South,9.2,-,N/A,,Overcast,180,2013-11-04 10:55:00
5:15 AM,45.9,33.1,61,29.89,10.0,South,9.2,-,N/A,,Overcast,170,2013-11-04 11:15:00
5:35 AM,46.0,33.1,61,29.88,10.0,South,11.5,16.1,N/A,,Overcast,170,2013-11-04 11:35:00
5:55 AM,45.9,33.3,61,29.88,10.0,South,9.2,-,N/A,,Overcast,190,2013-11-04 11:55:00
6:15 AM,46.2,33.4,61,29.87,10.0,South,13.8,18.4,N/A,,Overcast,180,2013-11-04 12:15:00
6:35 AM,46.0,33.6,62,29.87,10.0,South,11.5,16.1,N/A,,Overcast,190,2013-11-04 12:35:00
6:55 AM,46.0,33.8,62,29.87,10.0,South,8.1,-,N/A,,Overcast,180,2013-11-04 12:55:00
7:15 AM,45.9,34.2,64,29.87,10.0,SSW,13.8,-,N/A,,Overcast,200,2013-11-04 13:15:00
7:35 AM,46.0,34.3,64,29.87,10.0,South,10.4,16.1,N/A,,Overcast,180,2013-11-04 13:35:00
7:55 AM,46.2,34.5,64,29.87,10.0,SSW,10.4,19.6,N/A,,Overcast,200,2013-11-04 13:55:00
8:15 AM,46.2,34.7,64,29.87,10.0,South,11.5,-,N/A,,Overcast,190,2013-11-04 14:15:00
8:35 AM,46.2,34.9,65,29.87,10.0,South,10.4,16.1,N/A,,Overcast,180,2013-11-04 14:35:00
8:55 AM,46.4,34.9,64,29.87,10.0,South,10.4,19.6,N/A,,Overcast,180,2013-11-04 14:55:00
9:15 AM,46.4,35.1,65,29.86,10.0,South,13.8,-,N/A,,Overcast,180,2013-11-04 15:15:00
9:35 AM,46.6,35.6,66,29.86,10.0,South,12.7,19.6,N/A,,Overcast,190,2013-11-04 15:35:00
9:55 AM,46.8,35.6,65,29.85,10.0,South,15.0,21.9,N/A,,Overcast,190,2013-11-04 15:55:00
10:15 AM,46.6,35.8,66,29.85,10.0,SSW,12.7,-,N/A,,Overcast,200,2013-11-04 16:15:00
10:35 AM,46.2,36.1,68,29.86,10.0,South,18.4,25.3,N/A,,Light Drizzle,190,2013-11-04 16:35:00
10:55 AM,43.9,39.0,83,29.86,7.0,South,15.0,23.0,0.02,Rain,Rain,190,2013-11-04 16:55:00
11:15 AM,42.8,40.1,90,29.85,7.0,South,9.2,-,0.05,Rain,Light Rain,190,2013-11-04 17:15:00
11:35 AM,42.8,40.6,92,29.84,7.0,SSW,6.9,-,0.06,Rain,Light Rain,200,2013-11-04 17:35:00
11:55 AM,42.8,40.6,92,29.84,10.0,South,5.8,-,0.06,,Overcast,190,2013-11-04 17:55:00
12:15 PM,43.0,40.5,91,29.83,10.0,SSW,8.1,-,N/A,Rain,Light Rain,200,2013-11-04 18:15:00
12:35 PM,42.8,41.0,93,29.83,7.0,SSW,6.9,-,0.02,Rain,Light Rain,200,2013-11-04 18:35:00
12:55 PM,42.8,41.0,93,29.82,7.0,SSW,8.1,-,0.02,Rain,Light Rain,200,2013-11-04 18:55:00
1:15 PM,42.8,41.2,94,29.82,7.0,SSW,8.1,-,0.01,Rain,Rain,200,2013-11-04 19:15:00
1:35 PM,43.2,41.4,93,29.81,7.0,SSW,8.1,-,0.02,Rain,Light Rain,200,2013-11-04 19:35:00
1:55 PM,43.7,41.5,92,29.81,10.0,South,8.1,-,0.02,,Drizzle,190,2013-11-04 19:55:00
2:15 PM,43.7,41.4,91,29.81,10.0,South,8.1,-,N/A,,Light Drizzle,190,2013-11-04 20:15:00
2:35 PM,43.7,41.9,93,29.81,10.0,SSW,8.1,-,N/A,,Light Drizzle,200,2013-11-04 20:35:00
2:55 PM,43.9,41.9,93,29.81,10.0,SW,9.2,-,N/A,,Light Drizzle,220,2013-11-04 20:55:00
3:15 PM,44.1,42.1,93,29.82,10.0,SSW,8.1,-,N/A,,Light Drizzle,210,2013-11-04 21:15:00
3:35 PM,44.1,42.4,94,29.83,5.0,SW,9.2,-,N/A,,Light Drizzle,220,2013-11-04 21:35:00
3:55 PM,44.1,43.0,96,29.83,3.0,SW,9.2,-,N/A,,Light Drizzle,230,2013-11-04 21:55:00
4:15 PM,44.2,42.8,95,29.84,4.0,WSW,11.5,18.4,0.01,Rain,Light Rain,240,2013-11-04 22:15:00
4:35 PM,44.1,42.1,93,29.86,10.0,WSW,9.2,-,0.01,,Overcast,250,2013-11-04 22:35:00
4:55 PM,43.7,41.4,91,29.87,10.0,WSW,8.1,-,0.01,,Overcast,250,2013-11-04 22:55:00
5:15 PM,43.5,40.8,90,29.87,10.0,WSW,5.8,-,N/A,,Overcast,250,2013-11-04 23:15:00
5:35 PM,43.0,40.1,90,29.90,10.0,WSW,9.2,-,N/A,,Overcast,250,2013-11-04 23:35:00
5:55 PM,43.2,38.3,83,29.92,10.0,West,15.0,24.2,N/A,,Overcast,270,2013-11-04 23:55:00
6:15 PM,42.8,38.1,84,29.93,10.0,West,16.1,20.7,N/A,,Overcast,270,2013-11-05 00:15:00
6:35 PM,42.1,37.2,83,29.95,10.0,West,11.5,18.4,N/A,,Overcast,270,2013-11-05 00:35:00
6:55 PM,40.6,34.0,77,29.97,10.0,West,18.4,24.2,N/A,,Overcast,270,2013-11-05 00:55:00
7:15 PM,39.4,33.3,79,29.98,10.0,West,12.7,16.1,N/A,,Mostly Cloudy,260,2013-11-05 01:15:00
7:35 PM,39.7,32.9,77,29.99,10.0,West,9.2,17.3,N/A,,Overcast,260,2013-11-05 01:35:00
7:55 PM,39.4,33.3,79,29.99,10.0,WSW,6.9,-,N/A,,Overcast,250,2013-11-05 01:55:00
8:15 PM,39.4,32.0,75,30.00,10.0,WSW,11.5,17.3,N/A,,Overcast,250,2013-11-05 02:15:00
8:35 PM,38.3,31.8,77,30.00,10.0,SW,9.2,-,N/A,,Scattered Clouds,230,2013-11-05 02:35:00
8:55 PM,35.8,31.6,85,30.01,10.0,SW,6.9,-,N/A,,Clear,220,2013-11-05 02:55:00
9:15 PM,35.1,31.8,88,30.03,10.0,SW,6.9,-,N/A,,Clear,220,2013-11-05 03:15:00
9:35 PM,34.9,31.5,87,30.04,10.0,SW,6.9,-,N/A,,Clear,220,2013-11-05 03:35:00
9:55 PM,34.9,31.8,89,30.05,10.0,SW,9.2,-,N/A,,Clear,220,2013-11-05 03:55:00
10:15 PM,34.7,31.6,89,30.05,10.0,SW,6.9,-,N/A,,Clear,230,2013-11-05 04:15:00
10:35 PM,34.0,31.6,91,30.05,10.0,WSW,6.9,-,N/A,,Clear,240,2013-11-05 04:35:00
10:55 PM,34.2,31.6,90,30.07,10.0,SW,9.2,-,N/A,,Clear,230,2013-11-05 04:55:00
11:15 PM,34.3,31.8,90,30.07,10.0,WSW,9.2,-,N/A,,Clear,240,2013-11-05 05:15:00
11:35 PM,34.5,31.8,90,30.08,10.0,WSW,8.1,-,N/A,,Clear,240,2013-11-05 05:35:00
11:55 PM,34.2,31.6,90,30.08,10.0,WSW,6.9,-,N/A,,Clear,250,2013-11-05 05:55:00